Starlink 3789

operational
NORAD ID: 52283 Int'l Des: 2022-041 Owner: SPXS Country: US Constellation: starlink
LEOCIRCULAR

Starlink 3789について

説明を読み込み中...

リアルタイム位置

3D地球を読み込み中...

次回通過

高度履歴

Altitude vs Time

uPlot chart will show altitude changes over time

軌道要素

1 52283U 22041Y 25259.45270255 -.00001398 00000-0 -69796-4 0 9996
2 52283 53.2171 171.3019 0001691 92.2886 267.8300 15.08828552188068
Epoch: Sep 16, 2025 • Age: 11 hours

現在のステータス

高度 559.3 km
速度 7.58 km/s
衛星直下点 -52.84°S, 108.55°E
打ち上げ日 Apr 21, 2022
運用期間 3.4 years
タイプ internet

技術仕様

分類 Payload
質量 297.00 kg
乾燥質量 275.00 kg
総質量 297.00 kg
長さ 0.20 m
直径 2.80 m
スパン 9.00 m
形状 Box + pan
製造者 SPXS
バスタイプ Starlink
フェーズステータス In Orbit
所有者/国 SPXS/US

大規模コンステレーション

Loading constellations...